Regional Weather Roundup
Issued by NWS Portland, ME

Home | Current Version | Previous Version | Text Only | Print | Product List | Glossary On
Versions: 1 2 3 4 5 6 7 8 9 10 11 12 13 14 15 16 17 18 19 20 21 22 23 24 25 26 27 28 29 30 31 32 33 34 35 36 37 38 39 40 41 42 43 44 45 46 47 48 49 50
000
ASUS41 KGYX 290910
RWRGYX
WEATHER ROUNDUP FOR MAINE AND NEW HAMPSHIRE
NATIONAL WEATHER SERVICE GRAY ME
500 AM EDT SUN MAY 29 2016

MEZ002-005-006-010-012-015-018-020-021-024-026-027-029-291000-
MAINE

CITY           SKY/WX    TMP DP  RH WIND       PRES   REMARKS
PORTLAND       CLOUDY    58  51  78 E9        30.22R
SANFORD        CLOUDY    57  48  72 NE9       30.21S
BAR HARBOR     MOCLDY    53  46  77 E9        30.26R
WISCASSET      CLOUDY    57  51  80 E7        30.25R
ROCKLAND       PTCLDY    53  49  86 NE8       30.25R
FRYEBURG       CLOUDY    63  58  83 E6        30.23R
LEWISTONAUBURN CLOUDY   N/A N/A N/A NE5       30.22S
AUGUSTA        CLOUDY    57  52  83 E6        30.24R
WATERVILLE     CLOUDY    59  52  77 CALM      30.22R
BANGOR         CLOUDY    60  48  64 E3        30.26R
GREENVILLE       N/A     55  51  86 VRB5      30.23R
MILLINOCKET    CLOUDY    56  51  84 SE3       30.28R
HOULTON        CLOUDY    50  44  80 CALM      30.28R
PRESQUE ISLE   CLOUDY    52  47  83 S12       30.27F
FRENCHVILLE    CLOUDY    50  42  74 E5        30.25S
CARIBOU        CLOUDY    53  50  89 S6        30.26S
$$

NHZ002-005-008-009-011-012-014-291000-
NEW HAMPSHIRE

CITY           SKY/WX    TMP DP  RH WIND       PRES   REMARKS
PORTSMOUTH     CLOUDY    57  53  84 NE12G18   30.17S
ROCHESTER      CLOUDY    59  53  80 NE6       30.19R
NASHUA         CLOUDY    65  61  87 NE5       30.17R
MANCHESTER     CLOUDY    65  60  84 NE6       30.15R
CONCORD        CLOUDY    65  61  87 NE9       30.17R
LACONIA        CLOUDY    63  60  90 E8        30.21R
PLYMOUTH       CLOUDY    68  63  84 SE6       30.18R
BERLIN         PTCLDY    58  54  86 CALM      30.19R
WHITEFIELD     PTCLDY    65  60  84 CALM      30.15R
JAFFREY        CLOUDY    65  63  93 VRB7      30.17R FOG
KEENE          CLEAR     61  59  94 CALM      30.14S
LEBANON        CLEAR     61  59  93 CALM      30.14R
MT WASHINGTON  MOCLDY    52  52  99 SW20        N/A
$$

VTZ005-007-008-291000-
VERMONT

CITY           SKY/WX    TMP DP  RH WIND       PRES   REMARKS
ST JOHNSBURY     N/A     60  56  86 MISG      30.13R
MONTPELIER     FAIR      59  57  93 CALM      30.18R
BURLINGTON     FAIR      67  60  78 N3        30.08R
$$

MAZ007-012-024-CTZ003-RIZ002-NYZ038-NYZ072-291000-
SOUTHERN NEW ENGLAND AND NY

CITY           SKY/WX    TMP DP  RH WIND       PRES   REMARKS
BOSTON         CLOUDY    61  57  87 N10       30.15R
WORCESTER      MOCLDY    66  65  96 NE9       30.16R FOG
NANTUCKET      CLEAR     59  56  89 SW9       30.14S
PROVIDENCE     CLEAR     67  54  63 CALM      30.12R
HARTFORD       PTCLDY    68  60  75 CALM      30.10S
ALBANY         PTCLDY    70  65  84 CALM      30.09S
NEW YORK CITY  CLOUDY    74  58  57 S5        30.11S
$$

ANZ081-ANZ082-ANZ150-NHZ014-MEZ023>029-291000-
COASTAL MARINE OBSERVATIONS

STATION/POSITION TIME  TEMP    WIND        PRES    WAVE
                       AIR SEA DIR/SP/G            HT/PER
                 (UTC) (F)     (DEG/KT/KT) (MB)    (FT/S)
MOUNT DESERT ROC 0900   50      70/ 13/ 14 1024.4R
MATINICUS ROCK   0900   53     100/ 20/ 21 1023.0R
ISLE OF SHOALS   0900   54      30/ 20/ 22 1021.1R
JEFFREYS LEDGE   0808      55                N/A     2/ 3
CASHES LEDGE BUO 0850   53 53  110/ 19/ 25 1021.0R   3/ 4
GEORGES BANK BUO 0850   56 52              1021.6R   3/ 5
$$

.............KEY..............
   WCI - WIND CHILL
   TC  - TEMPERATURE IN CELSIUS
   VSB - VISIBILITY IN MILES
   HX  - HEAT INDEX
   FAIR- INDICATES FEW OR NO CLOUDS BELOW 12,000 FT, WITH NO
         SIGNIFICANT WEATHER AND/OR OBSTRUCTIONS TO VISIBILITY.






USA.gov is the U.S. government's official web portal to all federal, state and local government web resources and services.